Location: Devargunta
(16.7631°N, 80.9077°E)
Time: 16:16:27
(UTC+00:00)

PSLV R/B - Pass Details

Date: 19 January 2021
Orbit: 567 x 598 km, 98.2° (Epoch: 26 February)

Event Time Altitude Azimuth Distance (km) Brightness Sun altitude
Rises 12:53:06 0° 10° (N) 2,834 7.2 -7.1°
Reaches altitude 10° 12:55:16 10° 10° (N) 1,931 6.3 -7.5°
Maximum altitude 12:59:28 83° 282° (WNW) 604 4.1 -8.5°
Drops below altitude 10° 13:03:38 10° 195° (SSW) 1,921 7.1 -9.4°
Sets 13:05:47 0° 194° (SSW) 2,818 7.9 -9.9°
